Temperature
16 15 15 15 15 14 15 16 16 17 17 18 19 19 18 17 16 14 14 14 14 14 14 14 13 13 12 12 11 11 10 10 9 9 8 8 8 7 7 6 6 5 5 4
14 14 14 14 14 15 15 16 16 16 16 18 18 17 16 16 15 14 14 14 14 14 14 14 14 13 12 12 11 11 10 10 9 8 8 7 7 7 6 6 5 5 4 4
14 13 12 13 15 14 14 14 15 15 17 18 17 16 16 15 14 14 14 14 14 14 14 14 13 13 12 12 11 10 10 9 8 8 7 7 6 6 6 5 5 4 4 3
13 12 12 16 16 16 15 15 15 16 17 17 17 15 14 14 14 14 14 14 14 14 14 13 13 12 12 11 11 10 9 8 8 7 7 6 6 5 5 5 4 4 3 3
12 13 14 14 13 13 14 15 16 15 16 16 13 13 14 14 14 14 14 14 14 14 13 13 12 12 11 11 10 9 8 8 7 7 6 6 5 5 4 4 3 3 3 2
12 13 13 16 15 13 14 15 16 15 15 15 12 14 16 14 14 14 13 13 13 13 13 12 12 11 11 10 9 8 8 7 7 6 6 5 5 4 4 3 3 2 2 2
13 13 15 15 12 13 14 16 15 14 14 13 12 15 14 14 13 13 13 13 12 12 12 11 11 10 10 9 8 8 7 6 6 5 5 5 4 4 3 3 2 2 1 1
13 13 14 13 11 14 17 15 14 13 13 12 12 12 13 13 13 12 12 12 12 11 11 11 10 9 9 8 7 7 6 6 5 5 4 4 3 3 3 2 2 1 0 0
14 15 15 12 14 15 15 14 14 14 14 14 13 12 12 12 12 12 12 11 11 11 10 10 9 8 8 7 7 6 5 5 4 4 4 3 3 2 2 1 1 0 -1 -1
13 13 12 11 12 13 14 14 15 15 15 14 13 13 12 12 11 11 11 11 10 10 9 8 8 7 7 6 6 5 5 4 4 3 3 2 2 1 1 0 -0 -1 -2 -2
13 12 11 10 12 13 14 14 14 14 14 14 13 13 12 12 11 11 10 10 9 9 8 7 7 6 6 5 5 4 4 3 3 3 2 2 1 1 0 -0 -1 -2 -2 -3
14 13 14 14 14 14 14 14 14 14 13 13 13 12 12 11 11 10 9 9 8 7 7 6 6 5 5 4 4 3 3 3 2 2 1 1 0 -0 -0 -1 -1 -2 -3 -3
14 14 14 14 15 14 14 14 14 13 13 13 12 12 11 10 10 9 9 8 7 7 6 5 5 4 4 3 3 3 2 2 1 1 0 -0 -1 -1 -2 -2 -3 -3 -3 -4
13 13 12 13 14 14 14 13 13 12 12 12 11 11 10 10 9 8 8 7 6 5 5 4 4 3 3 2 2 2 1 1 0 -0 -1 -1 -2 -2 -3 -4 -4 -4 -5 -5
12 12 13 13 13 13 13 12 12 11 11 10 10 10 9 9 8 7 6 6 5 4 4 3 3 2 2 2 1 1 1 0 -1 -1 -2 -2 -3 -3 -4 -5 -5 -6 -6 -7
11 11 11 11 12 12 11 11 11 11 10 10 9 8 8 7 7 6 5 4 4 3 3 2 2 2 1 1 1 0 -0 -1 -1 -2 -3 -3 -4 -5 -5 -6 -7 -7 -7 -8
10 8 9 10 10 11 11 11 11 10 10 9 8 7 7 6 5 5 4 3 3 2 2 2 1 1 0 0 -0 -1 -1 -2 -2 -3 -4 -4 -5 -6 -6 -7 -8 -8 -8 -8
12 12 12 12 12 11 10 10 10 9 8 8 7 6 6 5 4 4 3 2 2 1 1 1 0 0 -0 -1 -1 -2 -2 -3 -3 -4 -5 -6 -6 -7 -8 -8 -8 -9 -9 -9
10 11 11 11 10 10 10 9 8 8 7 6 6 5 4 4 3 3 2 1 1 1 0 0 -0 -1 -1 -2 -2 -3 -3 -4 -5 -5 -6 -7 -7 -8 -9 -9 -9 -10 -10 -10
9 9 9 9 9 9 8 8 7 6 5 5 4 4 3 2 2 1 1 1 0 -0 -0 -1 -1 -1 -2 -2 -3 -4 -4 -5 -6 -6 -7 -8 -8 -9 -9 -10 -10 -11 -11 -11
7 8 8 8 7 7 7 6 5 5 4 3 3 3 2 1 1 0 0 -0 -1 -1 -1 -2 -2 -2 -3 -4 -4 -5 -6 -6 -7 -8 -8 -9 -9 -10 -10 -11 -11 -11 -11 -12
6 6 6 6 6 5 4 4 4 3 3 2 2 1 1 0 -0 -0 -1 -1 -1 -2 -2 -2 -3 -3 -4 -5 -6 -6 -7 -7 -8 -8 -9 -10 -10 -11 -11 -11 -12 -12 -12 -12
4 4 4 4 4 3 3 2 2 2 1 1 1 0 0 -0 -1 -1 -1 -2 -2 -3 -3 -3 -4 -4 -5 -6 -6 -7 -7 -8 -9 -9 -10 -10 -11 -11 -11 -12 -12 -12 -12 -12
2 2 3 2 2 2 1 1 1 0 0 -0 -0 -1 -1 -1 -2 -2 -2 -3 -3 -4 -4 -4 -5 -5 -6 -7 -7 -8 -8 -9 -9 -10 -11 -11 -11 -12 -12 -12 -12 -12 -12 -12
2 1 1 1 1 0 0 -0 -1 -1 -1 -1 -2 -2 -2 -2 -2 -3 -3 -4 -4 -4 -5 -5 -6 -6 -7 -8 -8 -9 -9 -10 -10 -11 -11 -12 -12 -12 -12 -12 -12 -12 -12 -12
-0 -0 -0 -0 0 -0 -1 -1 -1 -2 -2 -2 -2 -3 -3 -3 -3 -4 -4 -4 -5 -5 -6 -6 -7 -7 -8 -8 -9 -9 -10 -10 -11 -11 -11 -12 -12 -12 -12 -12 -12 -13 -13 -13
-1 -1 -1 -1 -1 -1 -1 -2 -2 -2 -2 -3 -3 -3 -4 -4 -4 -4 -5 -5 -6 -6 -7 -7 -8 -8 -8 -9 -9 -10 -10 -11 -11 -11 -12 -12 -12 -12 -12 -12 -13 -13 -13 -12
Wind_Speed
13 8 11 14 19 22 24 24 20 20 21 21 18 16 13 11 8 7 6 6 7 8 8 9 10 11 12 12 12 13 13 13 13 11 10 10 9 9 8 8 7 7 7 7
13 10 10 10 15 21 24 23 25 23 22 19 18 15 14 13 10 9 7 6 6 7 7 9 10 10 11 12 12 13 13 12 11 11 10 10 9 9 8 7 7 7 7 8
13 10 7 14 19 19 16 18 18 22 23 17 14 13 13 11 9 9 7 6 6 6 7 7 8 9 10 10 11 12 12 11 11 11 10 10 9 8 8 8 7 8 8 8
8 10 12 11 8 18 20 20 21 19 18 16 15 11 9 9 9 9 7 5 5 5 5 5 6 7 8 9 10 10 10 10 10 10 10 9 8 8 8 7 7 8 8 9
8 11 10 7 7 11 15 16 20 22 21 15 6 5 9 9 9 7 5 4 4 4 5 5 6 7 8 9 9 9 9 10 10 10 9 8 8 8 7 6 7 8 8 9
8 10 11 8 7 9 9 10 12 17 19 13 8 7 7 5 6 6 5 5 5 5 6 6 6 8 8 8 8 8 8 8 8 8 8 8 7 6 5 6 7 7 8 9
13 12 10 4 8 13 10 7 4 11 13 12 12 8 3 7 7 7 6 6 6 7 6 6 7 8 8 7 7 7 7 7 7 7 6 6 5 5 5 6 7 8 10 10
13 13 10 9 13 13 7 3 5 7 9 11 10 6 6 7 7 8 7 7 7 7 7 6 7 7 7 7 6 7 7 7 6 5 4 4 4 5 5 6 8 9 10 11
13 13 3 15 12 9 4 6 6 6 7 10 9 8 8 7 8 8 7 7 7 7 8 6 6 6 7 6 7 7 6 5 4 4 3 4 4 5 6 6 7 8 9 10
8 9 7 11 8 6 7 6 6 6 8 11 10 10 10 9 8 8 7 7 7 8 8 6 6 5 6 7 6 6 5 4 3 3 3 4 4 5 6 7 8 8 9 11
10 5 4 8 13 11 10 7 6 6 7 10 11 11 10 9 9 8 7 7 7 7 7 7 6 6 6 6 6 5 4 2 2 2 4 5 6 6 8 9 9 10 10 11
11 10 9 9 11 13 12 12 11 9 8 8 10 11 11 9 8 8 8 8 7 7 7 7 7 6 5 5 4 4 2 2 2 3 4 5 6 8 9 12 14 16 18 17
7 7 7 4 5 9 11 11 11 11 10 10 9 10 11 8 8 8 8 8 8 8 7 7 6 5 4 3 3 3 3 3 3 4 5 6 7 8 10 10 12 15 18 19
5 6 5 6 6 7 7 8 9 8 7 9 9 10 10 9 9 9 8 8 8 8 7 6 5 4 3 3 2 2 3 4 4 5 6 7 8 9 10 11 12 11 12 16
9 7 5 5 7 8 8 9 10 10 9 9 9 10 10 10 10 9 8 8 8 7 6 5 4 3 2 2 2 3 4 4 5 6 7 8 8 9 10 11 12 12 12 13
10 7 6 7 9 10 10 11 11 12 11 11 10 10 10 10 10 9 8 8 8 7 5 4 3 2 2 2 2 3 4 6 7 7 8 8 9 9 10 11 12 12 12 12
12 11 10 10 11 11 11 11 11 12 12 12 11 12 12 12 10 9 7 6 5 5 4 3 2 1 1 2 3 4 5 6 8 8 8 9 9 10 11 11 12 12 13 14
14 14 15 13 13 13 11 10 11 12 12 11 13 12 12 11 10 9 7 6 5 4 3 2 1 1 2 3 4 5 6 7 7 8 9 9 10 11 11 12 13 14 13 14
9 9 10 10 11 12 12 12 12 12 13 13 13 12 10 9 9 8 7 5 4 3 1 1 1 2 3 4 6 6 7 8 9 9 9 12 12 11 11 12 13 13 13 13
9 9 11 11 11 12 13 13 14 13 12 13 13 12 11 9 8 7 6 3 2 1 0 1 3 3 5 6 7 7 8 9 10 10 11 11 11 12 12 12 13 13 13 13
12 13 14 14 13 13 13 15 15 14 12 12 12 12 10 8 7 5 4 2 1 1 1 3 4 4 5 7 9 8 9 9 10 11 11 11 12 12 12 13 13 13 13 13
13 14 15 15 16 14 12 12 14 15 13 12 11 11 10 8 5 3 2 1 0 2 3 3 4 6 9 11 8 8 9 10 10 10 11 11 12 12 12 13 13 12 12 12
13 15 16 16 16 16 15 13 13 13 12 11 10 9 7 5 3 2 1 1 1 4 5 4 7 11 14 10 8 8 10 10 10 10 11 11 12 12 12 13 12 12 12 13
15 16 16 16 17 17 15 13 12 11 11 10 8 7 6 4 2 2 1 2 4 6 5 7 11 13 13 8 8 8 9 10 10 11 11 11 11 12 12 12 13 13 13 14
16 16 17 16 15 13 13 13 12 11 10 8 7 6 4 3 1 1 2 3 5 7 6 7 11 12 9 7 8 9 9 10 11 12 12 12 12 12 12 12 12 13 13 13
15 13 12 12 11 11 10 9 8 7 6 6 5 4 3 2 2 1 2 3 5 7 6 6 7 9 7 8 9 10 10 11 12 11 12 12 13 13 13 13 15 13 13 13
14 13 11 11 9 8 8 8 7 6 5 5 4 2 2 1 2 2 3 4 5 5 6 6 7 7 8 9 10 10 10 10 11 11 11 11 12 12 12 14 13 13 13 13
Wind_Direction
223 191 183 201 207 208 216 228 239 247 250 253 256 263 270 274 271 262 252 232 219 213 207 202 201 201 199 196 192 188 188 190 191 187 182 180 180 183 185 193 203 211 222 232
208 193 196 213 216 213 221 231 240 251 259 259 262 264 263 263 259 253 247 235 222 212 207 203 200 199 196 195 191 188 191 192 186 181 178 180 183 184 188 198 207 216 228 239
208 191 200 235 224 215 218 223 230 240 248 253 251 248 251 255 248 244 242 229 218 210 205 202 199 195 193 190 184 187 191 188 182 180 180 181 181 187 196 206 215 226 237 246
177 170 219 236 214 217 224 231 227 236 248 250 250 255 253 249 244 239 227 214 204 195 187 183 180 180 177 174 177 182 185 184 180 179 180 180 185 196 206 215 226 237 246 254
184 211 237 243 206 196 209 236 230 232 243 246 237 255 253 233 225 223 209 192 175 165 160 156 158 160 159 163 170 176 182 182 180 178 177 181 193 204 213 224 236 245 253 260
187 209 228 227 182 173 182 243 231 219 231 228 186 229 242 170 175 172 158 147 142 137 137 139 144 151 155 160 167 175 177 177 174 176 179 189 201 211 221 232 245 254 258 264
204 219 238 205 146 155 192 231 186 200 213 197 199 222 141 140 147 147 139 135 135 133 131 133 143 150 153 157 166 165 162 161 165 173 184 194 204 216 229 241 252 260 268 270
207 218 225 163 158 187 209 134 166 183 192 192 194 166 147 150 147 146 141 139 138 133 126 131 145 151 150 153 150 148 151 155 162 171 175 193 213 230 242 251 262 269 275 278
202 216 197 171 190 202 171 179 183 182 184 178 175 177 168 162 156 151 147 143 142 137 130 132 144 153 149 144 145 148 151 155 160 171 190 212 232 245 255 258 264 273 277 280
201 220 208 201 210 205 200 200 187 181 174 174 176 172 167 161 158 155 152 149 147 144 140 138 143 145 139 139 147 152 155 158 169 196 224 238 245 250 256 261 267 273 277 281
208 209 204 223 219 215 205 202 188 179 182 181 171 169 168 164 163 160 153 151 152 151 146 142 142 137 136 143 149 153 157 169 201 234 251 259 257 256 259 262 263 270 277 281
209 198 193 207 207 202 199 201 193 179 175 179 177 168 163 160 158 156 153 151 150 148 145 143 143 138 137 143 152 158 178 214 243 257 264 268 275 276 253 255 268 267 269 274
199 179 187 171 173 184 196 198 186 182 174 169 168 162 154 148 149 148 149 153 153 149 146 145 142 139 139 145 160 184 219 245 260 266 271 275 279 283 289 280 266 269 273 277
168 145 167 188 184 178 175 164 157 154 153 153 149 147 142 137 141 147 150 150 145 142 142 143 143 142 143 155 180 220 249 258 265 270 275 277 279 281 284 289 293 290 284 282
197 196 179 150 139 141 142 143 144 148 144 141 144 146 146 144 144 142 138 137 136 136 139 143 147 148 152 181 219 248 262 269 274 277 277 277 279 280 282 284 286 290 293 290
183 174 163 161 162 158 156 161 162 161 156 149 147 144 139 132 128 128 133 141 144 146 148 154 162 163 175 215 249 265 270 271 278 281 280 280 281 282 284 285 287 288 290 293
164 180 185 186 184 180 179 176 170 160 155 150 144 136 131 127 126 128 132 136 134 136 147 158 162 166 217 252 270 276 279 278 278 280 278 280 282 282 283 284 286 287 288 291
198 196 189 185 184 179 171 161 154 149 147 141 136 136 138 140 140 138 135 129 122 119 130 138 146 235 262 272 279 279 278 279 280 281 282 282 283 284 284 284 286 288 291 293
190 178 173 169 164 160 155 149 144 138 135 138 138 136 133 131 131 133 135 136 138 140 138 122 281 279 279 281 286 281 279 281 282 283 284 286 287 285 285 286 288 290 292 293
158 147 141 136 135 138 138 136 132 130 132 134 129 126 125 127 130 130 130 128 127 119 135 290 291 288 290 289 290 283 281 282 285 288 288 287 287 288 288 288 289 290 290 290
142 136 131 128 124 123 129 132 130 128 129 130 129 128 127 125 125 126 129 128 110 91 302 294 294 295 296 296 292 287 286 287 289 289 290 289 289 289 289 289 289 289 289 289
133 131 127 125 121 117 118 121 122 122 121 118 117 119 121 122 121 113 110 135 64 324 311 296 296 300 305 303 295 292 290 291 290 290 289 289 289 289 289 289 289 289 289 289
125 125 123 123 120 116 111 111 114 117 118 119 121 123 122 121 122 126 112 86 325 316 310 300 306 309 311 307 297 294 293 292 291 290 289 289 288 288 289 289 289 289 289 289
119 118 117 118 117 114 111 108 105 105 105 104 104 108 112 111 97 86 56 329 324 318 308 306 311 313 315 307 298 295 294 293 292 291 290 289 289 289 289 289 289 289 288 289
116 117 118 120 115 113 115 113 108 106 103 102 99 93 85 77 82 25 335 322 322 319 310 310 313 315 312 300 298 296 295 292 291 293 293 294 293 292 291 290 290 289 289 288
115 113 111 108 112 117 119 117 114 114 113 110 103 95 80 63 39 350 326 319 315 314 312 307 308 308 303 300 299 298 296 296 296 296 293 294 293 293 291 291 291 290 289 288
107 107 105 101 100 105 109 111 112 111 109 113 111 100 65 30 360 340 325 317 315 312 308 306 306 304 302 301 300 299 298 297 296 295 295 294 293 292 292 292 291 290 289 288
Height
1447 1452 1457 1459 1462 1467 1468 1463 1464 1459 1460 1457 1457 1458 1460 1461 1461 1461 1461 1461 1461 1462 1463 1464 1466 1468 1470 1473 1476 1479 1482 1484 1487 1491 1493 1495 1497 1499 1500 1501 1501 1501 1500 1499
1451 1455 1457 1458 1457 1459 1460 1459 1457 1457 1454 1450 1453 1455 1456 1456 1457 1457 1457 1457 1457 1458 1459 1460 1462 1463 1466 1468 1471 1474 1477 1480 1483 1486 1488 1491 1493 1494 1495 1496 1496 1495 1494 1493
1448 1455 1459 1456 1449 1452 1453 1452 1452 1452 1447 1446 1449 1450 1451 1451 1452 1452 1452 1453 1453 1454 1455 1457 1458 1460 1462 1464 1466 1469 1472 1475 1478 1481 1484 1486 1488 1489 1490 1490 1490 1490 1489 1487
1446 1456 1459 1437 1435 1438 1442 1442 1444 1442 1439 1441 1443 1445 1446 1446 1447 1447 1448 1449 1450 1451 1453 1454 1455 1457 1459 1461 1463 1465 1467 1470 1473 1476 1479 1481 1483 1484 1485 1485 1485 1484 1482 1481
1444 1443 1437 1434 1435 1435 1438 1435 1433 1435 1435 1437 1441 1442 1441 1440 1441 1443 1445 1446 1448 1449 1450 1452 1453 1455 1456 1458 1459 1461 1463 1466 1469 1472 1475 1477 1479 1480 1480 1480 1479 1478 1476 1474
1438 1439 1437 1424 1425 1428 1434 1432 1424 1427 1429 1432 1439 1438 1434 1436 1437 1439 1441 1444 1445 1447 1448 1450 1451 1453 1454 1455 1457 1459 1461 1463 1466 1468 1471 1473 1474 1475 1475 1474 1473 1471 1469 1467
1428 1430 1421 1418 1424 1428 1432 1422 1418 1420 1423 1427 1431 1430 1432 1433 1435 1437 1440 1442 1444 1445 1447 1449 1450 1451 1452 1454 1455 1457 1459 1461 1463 1466 1468 1469 1470 1470 1469 1468 1466 1464 1462 1459
1421 1424 1421 1417 1421 1419 1413 1413 1415 1417 1419 1422 1425 1427 1429 1431 1433 1436 1438 1440 1442 1444 1446 1447 1448 1450 1451 1452 1453 1455 1457 1459 1461 1463 1464 1465 1465 1464 1463 1462 1460 1457 1454 1451
1405 1405 1404 1407 1407 1408 1409 1411 1413 1414 1417 1419 1422 1424 1427 1429 1432 1434 1437 1439 1441 1443 1444 1445 1447 1448 1449 1451 1452 1454 1455 1457 1458 1459 1460 1460 1460 1459 1457 1455 1453 1450 1446 1443
1402 1401 1401 1402 1403 1404 1407 1409 1410 1412 1414 1416 1419 1421 1425 1427 1430 1433 1435 1437 1439 1441 1442 1444 1445 1446 1448 1449 1451 1452 1454 1455 1455 1456 1456 1455 1454 1452 1451 1448 1446 1442 1439 1435
1394 1395 1398 1398 1398 1400 1403 1406 1408 1410 1412 1414 1417 1419 1422 1425 1428 1431 1433 1435 1437 1439 1440 1442 1443 1445 1446 1447 1449 1450 1451 1451 1451 1451 1450 1449 1447 1446 1443 1441 1439 1435 1432 1428
1384 1386 1389 1390 1392 1396 1399 1401 1404 1406 1409 1411 1414 1417 1420 1423 1426 1429 1431 1433 1435 1437 1438 1440 1441 1443 1444 1445 1446 1447 1448 1447 1447 1446 1445 1443 1440 1438 1435 1433 1430 1427 1423 1420
1377 1380 1383 1386 1389 1391 1394 1397 1400 1403 1406 1408 1412 1415 1418 1421 1424 1426 1428 1431 1433 1435 1436 1438 1439 1441 1442 1443 1444 1444 1444 1443 1442 1440 1439 1436 1433 1430 1426 1424 1421 1418 1414 1411
1374 1377 1380 1383 1385 1388 1390 1393 1396 1400 1403 1406 1409 1413 1416 1418 1421 1424 1426 1429 1431 1432 1434 1436 1437 1438 1439 1440 1440 1440 1439 1438 1437 1434 1432 1429 1426 1423 1419 1415 1411 1407 1405 1402
1371 1374 1377 1379 1382 1384 1387 1390 1393 1396 1400 1403 1407 1410 1413 1416 1419 1422 1424 1426 1428 1430 1432 1433 1435 1436 1436 1436 1436 1435 1434 1433 1430 1428 1425 1422 1419 1416 1412 1408 1403 1399 1395 1392
1366 1370 1373 1375 1378 1380 1383 1386 1390 1393 1397 1400 1404 1408 1411 1414 1417 1419 1422 1424 1426 1428 1429 1431 1432 1433 1433 1432 1431 1430 1428 1427 1424 1421 1418 1415 1412 1408 1404 1400 1396 1392 1388 1384
1360 1364 1367 1370 1373 1376 1380 1383 1386 1390 1394 1398 1402 1406 1409 1412 1415 1417 1420 1422 1424 1426 1427 1428 1429 1429 1428 1427 1426 1424 1422 1420 1417 1414 1411 1407 1404 1400 1396 1393 1388 1384 1380 1377
1354 1357 1361 1364 1368 1372 1376 1380 1384 1388 1392 1396 1400 1404 1407 1410 1413 1416 1418 1420 1422 1424 1425 1425 1425 1425 1424 1422 1420 1418 1415 1413 1410 1406 1403 1399 1396 1392 1389 1385 1381 1377 1372 1369
1349 1353 1357 1361 1365 1368 1372 1377 1381 1385 1390 1394 1398 1402 1406 1409 1412 1414 1417 1419 1420 1421 1422 1422 1421 1420 1419 1417 1414 1411 1409 1405 1402 1399 1395 1392 1388 1384 1381 1377 1373 1369 1365 1361
1344 1349 1353 1357 1362 1366 1370 1375 1379 1384 1389 1393 1397 1401 1404 1408 1411 1413 1415 1417 1418 1418 1418 1417 1416 1415 1413 1411 1408 1405 1401 1398 1395 1391 1387 1384 1380 1376 1372 1369 1365 1361 1357 1353
1340 1345 1350 1354 1359 1364 1369 1374 1378 1383 1388 1393 1397 1400 1404 1407 1409 1412 1413 1414 1415 1414 1414 1413 1411 1409 1406 1404 1401 1398 1394 1391 1387 1383 1380 1376 1372 1368 1364 1360 1357 1353 1349 1345
1338 1343 1348 1353 1358 1363 1369 1374 1379 1383 1388 1393 1397 1400 1403 1406 1408 1410 1411 1412 1411 1410 1409 1407 1405 1403 1400 1397 1394 1391 1387 1383 1380 1376 1372 1368 1364 1360 1356 1352 1348 1345 1341 1337
1337 1342 1347 1353 1358 1363 1369 1375 1380 1385 1389 1393 1397 1400 1403 1405 1406 1407 1408 1408 1407 1405 1404 1402 1399 1396 1393 1390 1387 1383 1380 1376 1372 1368 1364 1360 1356 1352 1348 1344 1341 1337 1333 1329
1338 1343 1349 1355 1360 1365 1371 1377 1382 1387 1391 1394 1397 1400 1402 1403 1404 1404 1404 1403 1402 1400 1398 1396 1393 1390 1387 1383 1380 1376 1372 1368 1364 1360 1356 1352 1348 1344 1340 1336 1333 1329 1325 1321
1341 1347 1352 1358 1363 1368 1374 1379 1384 1388 1391 1394 1397 1398 1400 1401 1401 1401 1400 1399 1397 1395 1392 1390 1387 1383 1380 1376 1372 1368 1364 1361 1357 1353 1349 1345 1341 1337 1333 1329 1325 1321 1317 1313
1346 1351 1357 1362 1367 1372 1377 1381 1385 1388 1391 1393 1395 1397 1397 1398 1397 1396 1395 1394 1391 1389 1386 1383 1380 1376 1373 1369 1365 1361 1357 1353 1349 1345 1341 1337 1333 1329 1325 1321 1317 1313 1309 1305
1351 1356 1361 1366 1371 1375 1379 1383 1386 1388 1391 1392 1394 1394 1394 1394 1393 1392 1390 1388 1386 1383 1380 1377 1374 1370 1366 1362 1358 1354 1350 1346 1342 1338 1334 1330 1326 1321 1317 1313 1309 1305 1302 1298